Tracking 20626 objects as of 8-Apr-2020
HD Live streaming from Space Station
objects crossing your sky now

DMSP 5D-2 F11 DEB

Track DMSP 5D-2 F11 DEB now!
10-day predictions


NORAD ID: 28317
Int'l Code: 1991-082AE
Perigee: 759.1 km
Apogee: 941.2 km
Inclination: 98.8 °
Period: 101.8 minutes
Semi major axis: 7221 km
RCS: 0.0133 m2 (small)
Launch date: November 28, 1991
Source: United States (US)
Launch site: AIR FORCE WESTERN TEST RANGE (AFWTR)

Note: This is SATELLITE DEBRIS
aabbcc
Your satellite tracking list
Your tracking list is empty




NASA's NSSDC Master Catalog

Two Line Element Set (TLE):
1 28317U 91082AE  20099.44984456 +.00000192 +00000-0 +11387-3 0  9990
2 28317 098.8253 093.4971 0126076 261.4900 254.4247 14.14802685823072
Source of the keplerian elements: AFSPC